www.pogodaiklimat.ru

ПОГОДА в Вашингтоне, MO

  • Прогноз погоды в Вашингтоне
  • Монитор погоды в Вашингтоне
  • Климат в Вашингтоне

АРХИВ ПОГОДЫ в Вашингтоне

Время (UTC), дата Ветер
(напр.,м/с)
 
Видим.   Явления Облачность Т
(С)
Тd
(С)
f
(%)
Тe
(С)
Тes
(С)
Комфортность

P
(гПа)

Po
(гПа)
Тmin
(С)
Tmax
(С)
R
(мм)
SD
(см)
17:35 22.05 Ю  5
{8} 
16 км    ясно  +28.0  +14.0  42  +30  +37  жарко    1009.9         
17:55 22.05 Ю  16 км    ясно  +28.0  +14.0  42  +30  +35  жарко    1009.9         
18:35 22.05 ЮЗ  7
{11} 
16 км    ясно  +28.0  +14.0  42  +30  +34  жарко    1009.9         
18:55 22.05 Ю  8
{10} 
16 км    ясно  +28.0  +15.0  45  +31  +33  душно    1009.9         
19:15 22.05 Ю  6
{10} 
16 км    ясно  +28.0  +16.0  48  +31  +34  душно    1009.5         
19:35 22.05 Ю  4
{10} 
16 км    ясно  +29.0  +17.0  48  +33  +39  очень
душно 
  1009.2         
19:55 22.05 Ю  8
{11} 
16 км    ясно  +29.0  +19.0  55  +34  +36  очень
душно 
  1009.2         
20:15 22.05 Ю  16 км    ясно  +29.0  +18.0  51  +33  +36  очень
душно 
  1009.5         
20:35 22.05 Ю  8
{10} 
16 км    ясно  +29.0  +18.0  51  +33  +34  очень
душно 
  1009.5         
20:55 22.05 Ю  16 км    ясно  +29.0  +19.0  55  +34  +35  очень
душно 
  1009.2         
21:15 22.05 Ю  6
{9} 
16 км    ясно  +29.0  +19.0  55  +34  +36  очень
душно 
  1009.2         
21:35 22.05 Ю  6
{9} 
16 км    ясно  +29.0  +19.0  55  +34  +36  очень
душно 
  1008.9         
21:55 22.05 Ю  16 км    ясно  +29.0  +20.0  58  +35  +37  очень
душно 
  1008.9         
22:15 22.05 Ю  14 км    ясно  +29.0  +20.0  58  +35  +36  очень
душно 
  1008.9         
22:35 22.05 Ю  16 км    ясно  +28.0  +20.0  62  +34  +35  очень
душно 
  1009.2         
22:55 22.05 Ю  4
{8} 
16 км    ясно  +28.0  +20.0  62  +34  +35  очень
душно 
  1009.2         
23:15 22.05 Ю  16 км    5/5 1800 м  +27.0  +20.0  66  +33  +33  очень
душно 
  1009.5         
23:35 22.05 Ю  16 км    5/5 1800 м  +27.0  +20.0  66  +33  +33  очень
душно 
  1009.5         
23:55 22.05 ЮВ  14 км    2/2 1800 м  +27.0  +21.0  70  +34  +34  очень
душно 
  1009.5         
00:15 23.05 Ю  16 км    ясно  +26.0  +21.0  74  +33  +33  очень
душно 
  1009.9         
00:35 23.05 ЮВ  16 км    2/2 930 м  +25.0  +21.0  78  +31  +31  очень
душно 
  1009.5         
01:15 23.05 ЮВ  16 км    5/5 720 м  +25.0  +22.0  83  +32  +32  очень
душно 
  1009.5         
01:35 23.05 Ю  16 км    5/5 720 м  +25.0  +22.0  83  +32  +32  очень
душно 
  1010.2         
01:55 23.05 ЮВ  16 км    5/5 660 м  +25.0  +22.0  83  +32  +32  очень
душно 
  1010.9         
02:15 23.05 ЮВ  14 км  гроза  5/5 660 м  +25.0  +22.0  83  +32  +32  очень
душно 
  1011.2         
02:35 23.05 ЮВ  13 км    5/5 720 м  +25.0  +22.0  83  +32  +32  очень
душно 
  1011.2         
02:55 23.05 ЮВ  13 км  гроза  5/5 780 м  +24.0  +23.0  94  +32  +32  очень
душно 
  1011.2         
03:15 23.05 ЮВ  13 км  гроза  5/5 780 м
[средняя] 
+24.0  +23.0  94  +32  +32  очень
душно 
  1010.9         
03:35 23.05   13 км  гроза  5/5 720 м  +24.0  +23.0  94  +32  +32  очень
душно 
           
03:55 23.05 Ю  8 км  гроза, дымка  5/5 690 м  +24.0  +23.0  94  +32  +32  очень
душно 
  1011.6         
04:15 23.05 Ю  8 км  гроза со слабым дождем  5/5 690 м  +25.0  +23.0  89  +33  +33  очень
душно 
           
04:35 23.05 Ю  11 км  гроза  8/8 690 м  +25.0  +23.0  89  +33  +33  очень
душно 
           
04:55 23.05 ЮВ  10 км  гроза, слабый дождь  5/5 810 м  +24.0  +24.0  100  +33  +33  очень
душно 
  1011.9         
05:15 23.05 Ю  11 км  гроза  5/5 720 м  +24.0  +24.0  100  +33  +33  очень
душно 
           
05:35 23.05 ЮЗ  13 км  гроза  8/8 660 м  +25.0  +23.0  89  +33  +33  очень
душно 
           
05:55 23.05 ЮЗ  5 км  гроза, слабый дождь  8/8 900 м  +25.0  +24.0  94  +34  +34  очень
душно 
           
06:15 23.05 СЗ  8
{11} 
2 км  гроза с дождем  10/10 180 м  +23.0  +23.0  100  +32  +32  очень
душно 
  1012.3         
06:35 23.05   2 км  гроза со слабым дождем  10/8 270 м
[средняя] 
+21.0  +21.0  100  +26  +26  душно    1012.9         
06:55 23.05 З  16 км  гроза  8/5 1080 м
[средняя] 
+22.0  +21.0  94  +28  +28  душно             
07:15 23.05 СЗ  16 км  гроза  8/8 1110 м  +21.0  +21.0  100  +27  +27  душно             
07:35 23.05   16 км  гроза  5/5 1050 м  +20.0  +20.0  100  +23  +23  комфорт    1014.3         
07:55 23.05 СЗ  13 км    8/8 870 м  +20.0  +20.0  100  +24  +24  комфорт    1014.6         
08:15 23.05 СЗ  16 км    10/8 870 м
[средняя] 
+20.0  +20.0  100  +24  +24  комфорт    1015.0         
08:35 23.05   16 км    8/8 900 м  +20.0  +20.0  100  +23  +23  комфорт    1015.3         
08:55 23.05 С  11 км    8/8 900 м  +20.0  +20.0  100  +24  +24  комфорт    1015.0         
09:15 23.05   16 км    2/2 1800 м  +20.0  +20.0  100  +23  +23  комфорт    1015.0         
09:35 23.05   11 км    ясно  +20.0  +20.0  100  +23  +23  комфорт    1014.6         
09:55 23.05 Ю  13 км    2/2 1170 м  +20.0  +20.0  100  +24  +24  комфорт    1016.3         

 

Местоположение метеостанции Washington Regional Airport: широта 37.5200 долгота -76.7600 высота над уровнем моря 7 м.

В архиве по умолчанию представлена погода в Вашингтоне за последние 1-2 суток. Обновление информации о фактической погоде в базе происходит ежечасно! Архивные данные за месяц целиком и за предыдущие месяцы Вы можете получить, выбрав интересующий диапазон дат из раскрывающегося списка и нажав кнопку "Ввод!".

Внимание! Архив погоды МЕТАР в базе сайта хранится не более 60 дней. Нет смысла пытаться выбрать более раннюю дату.

Внимание! Время в таблицах - всемирное. Для получения местного времени необходимо прибавить поправку, которая в Вашингтоне равна -6 ч.

Ветер - указаны скорость ветра в м/с и направление, откуда дует ветер: С - северный, СВ - северо-восточный, В - восточный, ЮВ - юго-восточный, Ю - южный, ЮЗ - юго-западный, З - западный, СЗ - северо-западный.
Видимость - горизонтальная дальность видимости в метрах или километрах. При видимости от 1 до 10 км при отсутствии осадков обычно наблюдается дымка, при ухудшении видимости до 1 км и менее - туман. В сухую погоду видимость может ухудшаться дымом, пылью или мглою.
Атмосферные явления - указаны явления, наблюдавшиеся в указанный момент времени.
Облачность - указаны через наклонную черту верхняя и нижняя облачность в баллах и высота нижней границы облаков в метрах. Внимание: облачность, как и прочие метеорологические величины в США измеряются автоматическими метеостанциями. Указанные значения в баллах носят условный характер и показывают процент времени, в течение которого, в среднем, лазерный луч высотомера отражался от облаков обратно.
T - Температура воздуха - температура, измеренная на высоте 2 м над землей.
Td - Температура точки росы - температура, при понижении до которой содержащийся в воздухе водяной пар достигнет насыщения.
f - Относительная влажность воздуха - влажноcть воздуха, измеренная на высоте 2 м над землей.
Te - Эффективная температура - температура, которую ощущает одетый по сезону человек в тени. Характеристика душности погоды. При расчете учитывается влияние влажности воздуха и скорости ветра на теплоощущения человека.
Tes - Эффективная температура на солнце - температура, которую ощущает человек, с поправкой на солнечный нагрев. Характеристика знойности погоды. Зависит от высоты солнца над горизонтом, облачности и скорости ветра. Ночью, в пасмурную погоду, а также при ветре 12 м/с и более поправка равна нулю.
P - Атмосферное давление - приведенное к уровню моря атмосферное давление.
Po - Атмосферное давление - измеренное на уровне метеостанции атмосферное давление.
Tmin - Минимальная температура - минимум температуры воздуха на высоте 2 м над землей.
Tmax - Максимальная температура - максимум температуры воздуха на высоте 2 м над землей.
R - Количество осадков - Количество выпавших осадков за 3 или 6 часов, мм.
SD - Снежный покров - Высота снежного покрова, см.